www.pogodaiklimat.ru

АРХИВ ПОГОДЫ в Аллайансе

Время (UTC), дата Ветер
(напр.,м/с)
 
Видим.   Явления Облачность Т
(С)
Тd
(С)
f
(%)
Тe
(С)
Тes
(С)
Комфортность

P
(гПа)

Po
(гПа)
Тmin
(С)
Tmax
(С)
R
(мм)
SD
(см)
14:53 17.08 З  16 км    ясно  +21.1  +15.0  68  +24  +28  комфорт  1005.6  874.0         
15:53 17.08 З  16 км    ясно  +22.8  +13.9  57  +26  +33  жарко  1005.5  874.0         
16:53 17.08 З  16 км    ясно  +26.7  +15.0  49  +29  +34  жарко  1004.2  873.2  +12.2  +26.7     
17:53 17.08 З  5
{9} 
16 км    ясно  +28.9  +12.2  36  +30  +36  жарко  1002.9  872.6         
18:53 17.08 З  10
{13} 
16 км    ясно  +30.0  +7.2  24  +29  +29  жарко  1002.9  872.6         
19:53 17.08 З  7
{11} 
16 км    ясно  +32.2  +6.7  20  +30  +33  жарко  1001.8  871.7         
20:53 17.08 Ю  16 км    ясно  +31.7  +8.9  24  +31  +34  жарко  1002.0  871.7         
21:53 17.08 ЮЗ  16 км    ясно  +30.0  +9.4  28  +30  +33  жарко  1002.3  871.7         
22:49 17.08 З  16 км  гроза  2/0 3300 м
[средняя] 
+26.0  +10.0  37  +27  +29  жарко    871.7         
22:53 17.08 З  16 км  гроза  5/0 3300 м
[средняя] 
+26.1  +10.6  38  +27  +29  жарко  1002.8  871.7  +26.1  +32.2     
23:04 17.08 З  16 км  слабый дождь  8/2 810 м
[средняя] 
+27.8  +11.1  35  +29  +29  жарко    871.7         
23:53 17.08 СВ  16 км    ясно  +24.4  +12.2  46  +26  +27  жарко  1003.0  871.7         
00:53 18.08 С  16 км    ясно  +20.6  +13.3  63  +23  +23  комфорт  1003.9  872.3         
01:22 18.08 С  9
{14} 
16 км    2/2 60 м  +21.1  +16.1  73  +24  +24  комфорт    873.5         
01:53 18.08 СВ  9
{13} 
16 км    8/8 450 м  +18.3  +15.6  84  +18  +18    1006.1  874.3         
02:04 18.08 СВ  11
{13} 
16 км    10/10 390 м  +18.3  +15.6  84  +17  +17      874.6         
02:53 18.08 СВ  11
{16} 
16 км    10/10 360 м  +17.2  +13.9  81  +15  +15    1007.7  875.8         
03:53 18.08 СВ  11
{16} 
16 км    10/10 390 м  +16.1  +12.8  81  +14  +14    1008.3  876.4         
04:30 18.08 СВ  16 км    10/10 480 м  +16.1  +12.2  78  +14  +14      876.7         
04:53 18.08 СВ  16 км    10/10 600 м  +15.6  +11.7  78  +14  +14    1008.9  877.3  +15.6  +24.4     
05:53 18.08 С  16 км    10/10 480 м  +15.0  +11.7  81  +13  +13    1009.9  878.1         
06:53 18.08 С  16 км    10/10 480 м  +14.4  +11.1  81  +12  +12    1010.0  878.4         
07:43 18.08 СВ  16 км    10/10 390 м  +13.9  +11.1  83  +12  +12      878.7         
07:53 18.08 СВ  16 км    10/10 390 м  +13.9  +11.1  83  +12  +12    1010.2  878.7         
08:13 18.08 СВ  16 км    10/10 360 м  +13.9  +11.1  83  +13  +13      878.7         
08:45 18.08 СВ  16 км    10/10 480 м  +13.9  +11.1  83  +14  +14      878.7         
08:53 18.08   16 км    10/10 480 м  +13.9  +11.7  87  +13  +13    1010.5  878.7         
09:45 18.08 С  16 км    10/10 480 м  +13.9  +11.1  83  +13  +13      879.0         
09:53 18.08 С  16 км    10/10 480 м  +13.9  +11.7  87  +13  +13    1010.9  879.0         
10:53 18.08 СВ  16 км    10/10 840 м  +13.9  +11.1  83  +13  +13    1012.0  879.6  +13.9  +15.6     
11:53 18.08 В  16 км    10/10 1080 м  +13.9  +11.1  83  +14  +14    1013.1  880.5         
12:53 18.08 ЮВ  16 км    8/8 450 м  +14.4  +11.7  84  +13  +14    1013.4  880.2         
13:51 18.08 Ю  16 км    2/2 450 м  +16.0  +11.0  72  +15  +17      879.9         
13:53 18.08 Ю  16 км    2/2 450 м  +16.7  +11.1  70  +16  +18    1013.0  879.9         
14:53 18.08 Ю  16 км    ясно  +18.9  +11.7  63  +19  +21    1013.2  880.2         
15:53 18.08 Ю  16 км    2/2 960 м  +21.1  +12.2  57  +23  +24  комфорт  1012.5  879.6         
16:53 18.08 Ю  16 км    ясно  +23.3  +12.2  50  +26  +29  жарко  1011.8  879.3  +13.9  +23.3     
17:53 18.08 Ю  16 км    ясно  +24.4  +12.2  46  +26  +29  жарко  1010.8  878.4         
18:53 18.08 Ю  7
{10} 
16 км    ясно  +26.1  +12.2  42  +28  +31  жарко  1010.4  878.4         
19:53 18.08 Ю  16 км    ясно  +27.2  +12.2  39  +28  +38  жарко  1009.6  877.6         
20:53 18.08 ЮВ  16 км    ясно  +28.3  +12.2  37  +29  +34  жарко  1008.7  877.0         
21:53 18.08 Ю  16 км    ясно  +28.9  +12.2  36  +30  +35  жарко  1008.6  877.0         
22:53 18.08 Ю  16 км    ясно  +27.8  +13.3  41  +30  +32  жарко  1008.6  877.0  +22.8  +28.9     
23:53 18.08 ЮВ  16 км    ясно  +25.6  +13.9  48  +28  +29  жарко  1009.0  877.0         
00:53 19.08 ЮВ  16 км    ясно  +20.6  +15.0  70  +23  +23  комфорт  1009.9  877.3         
01:53 19.08 В  16 км    ясно  +20.6  +15.0  70  +23  +23  комфорт  1010.7  878.1         
02:53 19.08 ЮВ  16 км    ясно  +19.4  +15.6  79  +21  +21  комфорт  1010.8  878.4         
03:53 19.08 ЮВ  16 км    ясно  +19.4  +15.6  79  +21  +21  комфорт  1010.9  878.7         

 

Местоположение метеостанции Alliance Minicipal Airport: широта 42.0600 долгота -102.8000 высота над уровнем моря 1197 м.

В архиве по умолчанию представлена погода в Аллайансе за последние 1-2 суток. Обновление информации о фактической погоде в базе происходит ежечасно! Архивные данные за месяц целиком и за предыдущие месяцы Вы можете получить, выбрав интересующий диапазон дат из раскрывающегося списка и нажав кнопку "Ввод!".

Внимание! Архив погоды МЕТАР в базе сайта в настоящее время начинается c 1 января 2011 г. Нет смысла пытаться выбрать более раннюю дату.

Внимание! Время в таблицах - всемирное. Для получения местного времени необходимо прибавить поправку, которая в Аллайансе равна -7 ч.

Ветер - указаны скорость ветра в м/с и направление, откуда дует ветер: С - северный, СВ - северо-восточный, В - восточный, ЮВ - юго-восточный, Ю - южный, ЮЗ - юго-западный, З - западный, СЗ - северо-западный.
Видимость - горизонтальная дальность видимости в метрах или километрах. При видимости от 1 до 10 км при отсутствии осадков обычно наблюдается дымка, при ухудшении видимости до 1 км и менее - туман. В сухую погоду видимость может ухудшаться дымом, пылью или мглою.
Атмосферные явления - указаны явления, наблюдавшиеся в указанный момент времени.
Облачность - указаны через наклонную черту верхняя и нижняя облачность в баллах и высота нижней границы облаков в метрах. Внимание: облачность, как и прочие метеорологические величины в США измеряются автоматическими метеостанциями. Указанные значения в баллах носят условный характер и показывают процент времени, в течение которого, в среднем, лазерный луч высотомера отражался от облаков обратно.
T - Температура воздуха - температура, измеренная на высоте 2 м над землей.
Td - Температура точки росы - температура, при понижении до которой содержащийся в воздухе водяной пар достигнет насыщения.
f - Относительная влажность воздуха - влажноcть воздуха, измеренная на высоте 2 м над землей.
Te - Эффективная температура - температура, которую ощущает одетый по сезону человек в тени. Характеристика душности погоды. При расчете учитывается влияние влажности воздуха и скорости ветра на теплоощущения человека.
Tes - Эффективная температура на солнце - температура, которую ощущает человек, с поправкой на солнечный нагрев. Характеристика знойности погоды. Зависит от высоты солнца над горизонтом, облачности и скорости ветра. Ночью, в пасмурную погоду, а также при ветре 12 м/с и более поправка равна нулю.
P - Атмосферное давление - приведенное к уровню моря атмосферное давление.
Po - Атмосферное давление - измеренное на уровне метеостанции атмосферное давление.
Tmin - Минимальная температура - минимум температуры воздуха на высоте 2 м над землей.
Tmax - Максимальная температура - максимум температуры воздуха на высоте 2 м над землей.
R - Количество осадков - Количество выпавших осадков за 3 или 6 часов, мм.
SD - Снежный покров - Высота снежного покрова, см.